{"data":{"norad_id":64444,"intl_designator":"2025-130G","name":"STARLINK-34399","alt_names":[],"object_type":"PAYLOAD","status":"ACTIVE","operator":null,"country":"US","launch_date":"2025-06-18","launch_site_code":"AFETR","launch_vehicle":null,"mission":null,"orbit_class":"UNKNOWN","rcs_meters":null,"size_class":null,"mass_kg":null,"dimensions":null,"purposes":["comms"],"wikipedia_slug":null,"has_3d_model":false,"image_url":null,"decayed_at":null,"tle_current":{"epoch":"2026-05-25T02:41:39.236352Z","epoch_age_seconds":76073,"freshness":"FRESH","line1":"1 64444U 25130G   26145.11225968  .00019644  00000+0  59097-3 0  9991","line2":"2 64444  53.1603  92.8602 0001050  86.8761 273.2361 15.34401389 52415","mean_motion":15.34401389,"eccentricity":0.000105,"inclination_deg":53.1603,"raan_deg":92.8602,"arg_perigee_deg":86.8761,"mean_anomaly_deg":273.2361,"bstar":0.00059097,"rev_number":5241,"period_min":93.847673126683,"perigee_km":461.98082401776,"apogee_km":463.41739960124,"semimajor_km":6840.8361118095,"source":"CELESTRAK","updated_at":"2026-05-25T13:38:20.447846Z"}}}